SITE: BDASn,YEAR: 2009,,,,,,
2009date,time,pzhd (cm),gw temp (C),DWT (cm),WT elev (m),,
01/01/09,0:00,275.1,13.3,91.2,1372.609,,Depth to water table:
01/01/09,0:30,275.3,13.3,91.0,1372.611,,DWT = SCL - CH - h (all values in cm)
01/01/09,1:00,275.0,13.3,91.3,1372.608,,where
01/01/09,1:30,274.9,13.3,91.4,1372.607,,SCL = sensor cable length = 493.3 cm
01/01/09,2:00,276.1,13.3,90.2,1372.619,,CH = casing height of well = 127.0 cm
01/01/09,2:30,275.3,13.3,91.0,1372.611,,h = height of water above sensor (from pzhd column)
01/01/09,3:00,275.5,13.3,90.8,1372.613,,
01/01/09,3:30,275.4,13.3,90.9,1372.612,,WT elevation:
01/01/09,4:00,274.8,13.3,91.5,1372.606,,Sensor elev = 1369.858 m asl
01/01/09,4:30,275.5,13.3,90.8,1372.613,,WT elev = sensor elev + h (from pzhd column)
01/01/09,5:00,275.0,13.3,91.3,1372.608,,
01/01/09,5:30,275.3,13.3,91.0,1372.611,,
01/01/09,6:00,275.1,13.3,91.2,1372.609,,Dates with missing data (# 0.5 hr data points):
01/01/09,6:30,275.2,13.3,91.1,1372.610,,4/14 (4).
01/01/09,7:00,275.6,13.3,90.7,1372.614,,
01/01/09,7:30,275.7,13.3,90.6,1372.615,,
01/01/09,8:00,275.4,13.3,90.9,1372.612,,Dates w/missing T data:
01/01/09,8:30,274.8,13.3,91.5,1372.606,,"Jan 19, Feb 4, 7, 20, Mar 17,"
01/01/09,9:00,275.0,13.3,91.3,1372.608,,"Apr 13 14, 17, 30, May 13, 22,"
01/01/09,9:30,274.8,13.3,91.5,1372.606,,"Jun 9, Jul 28, Aug 21, Oct 14,"
01/01/09,10:00,274.8,13.3,91.5,1372.606,,"Nov 2, 9, 12, 17."
01/01/09,10:30,274.5,13.3,91.8,1372.603,,
01/01/09,11:00,274.7,13.3,91.6,1372.605,,
01/01/09,11:30,274.5,13.3,91.8,1372.603,,
01/01/09,12:00,274.4,13.3,91.9,1372.602,,
01/01/09,12:30,275.3,13.3,91.0,1372.611,,
01/01/09,13:00,275.4,13.3,90.9,1372.612,,
01/01/09,13:30,275.8,13.3,90.5,1372.616,,
01/01/09,14:00,276.1,13.3,90.2,1372.619,,
01/01/09,14:30,275.9,13.3,90.4,1372.617,,
01/01/09,15:00,275.6,13.3,90.7,1372.614,,
01/01/09,15:30,275.6,13.3,90.7,1372.614,,
01/01/09,16:00,275.2,13.3,91.1,1372.610,,
01/01/09,16:30,275.1,13.3,91.2,1372.609,,
01/01/09,17:00,275.2,13.3,91.1,1372.610,,
01/01/09,17:30,275.5,13.3,90.8,1372.613,,
01/01/09,18:00,274.9,13.3,91.4,1372.607,,
01/01/09,18:30,275.4,13.3,90.9,1372.612,,
01/01/09,19:00,275.4,13.3,90.9,1372.612,,
01/01/09,19:30,275.7,13.3,90.6,1372.615,,
01/01/09,20:00,275.1,13.3,91.2,1372.609,,
01/01/09,20:30,275.0,13.3,91.3,1372.608,,
01/01/09,21:00,275.0,13.3,91.3,1372.608,,
01/01/09,21:30,275.1,13.3,91.2,1372.609,,
01/01/09,22:00,275.0,13.3,91.3,1372.608,,
01/01/09,22:30,275.0,13.3,91.3,1372.608,,
01/01/09,23:00,274.9,13.3,91.4,1372.607,,
01/01/09,23:30,274.9,13.3,91.4,1372.607,,
01/02/09,0:00,275.0,13.3,91.3,1372.608,,
01/02/09,0:30,275.2,13.3,91.1,1372.610,,
01/02/09,1:00,274.5,13.3,91.8,1372.603,,
01/02/09,1:30,275.3,13.3,91.0,1372.611,,
01/02/09,2:00,275.4,13.3,90.9,1372.612,,
01/02/09,2:30,275.1,13.3,91.2,1372.609,,
01/02/09,3:00,275.3,13.3,91.0,1372.611,,
01/02/09,3:30,275.3,13.3,91.0,1372.611,,
01/02/09,4:00,275.5,13.3,90.8,1372.613,,
01/02/09,4:30,275.1,13.3,91.2,1372.609,,
01/02/09,5:00,275.0,13.3,91.3,1372.608,,
01/02/09,5:30,275.3,13.3,91.0,1372.611,,
01/02/09,6:00,275.9,13.3,90.4,1372.617,,
01/02/09,6:30,275.6,13.2,90.7,1372.614,,
01/02/09,7:00,275.9,13.3,90.4,1372.617,,
01/02/09,7:30,275.5,13.3,90.8,1372.613,,
01/02/09,8:00,275.3,13.3,91.0,1372.611,,
01/02/09,8:30,275.3,13.3,91.0,1372.611,,
01/02/09,9:00,275.4,13.3,90.9,1372.612,,
01/02/09,9:30,275.8,13.3,90.5,1372.616,,
01/02/09,10:00,275.4,13.3,90.9,1372.612,,
01/02/09,10:30,275.6,13.3,90.7,1372.614,,
01/02/09,11:00,274.9,13.3,91.4,1372.607,,
01/02/09,11:30,275.6,13.3,90.7,1372.614,,
01/02/09,12:00,275.6,13.2,90.7,1372.614,,
01/02/09,12:30,276.1,13.3,90.2,1372.619,,
01/02/09,13:00,276.2,13.3,90.1,1372.620,,
01/02/09,13:30,276.7,13.3,89.6,1372.625,,
01/02/09,14:00,276.5,13.3,89.8,1372.623,,
01/02/09,14:30,277.0,13.3,89.3,1372.628,,
01/02/09,15:00,277.0,13.3,89.3,1372.628,,
01/02/09,15:30,277.4,13.3,88.9,1372.632,,
01/02/09,16:00,277.0,13.3,89.3,1372.628,,
01/02/09,16:30,277.1,13.3,89.2,1372.629,,
01/02/09,17:00,277.3,13.3,89.0,1372.631,,
01/02/09,17:30,277.3,13.2,89.0,1372.631,,
01/02/09,18:00,277.5,13.2,88.8,1372.633,,
01/02/09,18:30,276.9,13.2,89.4,1372.627,,
01/02/09,19:00,277.1,13.3,89.2,1372.629,,
01/02/09,19:30,276.9,13.3,89.4,1372.627,,
01/02/09,20:00,276.6,13.3,89.7,1372.624,,
01/02/09,20:30,276.3,13.3,90.0,1372.621,,
01/02/09,21:00,277.0,13.3,89.3,1372.628,,
01/02/09,21:30,276.7,13.2,89.6,1372.625,,
01/02/09,22:00,277.1,13.3,89.2,1372.629,,
01/02/09,22:30,276.5,13.3,89.8,1372.623,,
01/02/09,23:00,276.4,13.3,89.9,1372.622,,
01/02/09,23:30,276.4,13.2,89.9,1372.622,,
01/03/09,0:00,276.8,13.2,89.5,1372.626,,
01/03/09,0:30,276.3,13.2,90.0,1372.621,,
01/03/09,1:00,276.4,13.2,89.9,1372.622,,
01/03/09,1:30,277.2,13.2,89.1,1372.630,,
01/03/09,2:00,276.6,13.2,89.7,1372.624,,
01/03/09,2:30,276.8,13.3,89.5,1372.626,,
01/03/09,3:00,276.6,13.2,89.7,1372.624,,
01/03/09,3:30,276.2,13.3,90.1,1372.620,,
01/03/09,4:00,277.1,13.2,89.2,1372.629,,
01/03/09,4:30,276.8,13.2,89.5,1372.626,,
01/03/09,5:00,276.9,13.2,89.4,1372.627,,
01/03/09,5:30,277.2,13.3,89.1,1372.630,,
01/03/09,6:00,276.9,13.2,89.4,1372.627,,
01/03/09,6:30,277.2,13.2,89.1,1372.630,,
01/03/09,7:00,276.7,13.2,89.6,1372.625,,
01/03/09,7:30,276.5,13.2,89.8,1372.623,,
01/03/09,8:00,277.1,13.3,89.2,1372.629,,
01/03/09,8:30,277.0,13.2,89.3,1372.628,,
01/03/09,9:00,277.1,13.2,89.2,1372.629,,
01/03/09,9:30,277.2,13.2,89.1,1372.630,,
01/03/09,10:00,277.0,13.2,89.3,1372.628,,
01/03/09,10:30,276.6,13.2,89.7,1372.624,,
01/03/09,11:00,275.6,13.2,90.7,1372.614,,
01/03/09,11:30,276.3,13.2,90.0,1372.621,,
01/03/09,12:00,276.5,13.2,89.8,1372.623,,
01/03/09,12:30,276.7,13.2,89.6,1372.625,,
01/03/09,13:00,277.5,13.2,88.8,1372.633,,
01/03/09,13:30,277.7,13.2,88.6,1372.635,,
01/03/09,14:00,277.5,13.2,88.8,1372.633,,
01/03/09,14:30,277.3,13.2,89.0,1372.631,,
01/03/09,15:00,277.7,13.2,88.6,1372.635,,
01/03/09,15:30,277.7,13.2,88.6,1372.635,,
01/03/09,16:00,277.5,13.2,88.8,1372.633,,
01/03/09,16:30,277.7,13.2,88.6,1372.635,,
01/03/09,17:00,277.5,13.2,88.8,1372.633,,
01/03/09,17:30,277.2,13.2,89.1,1372.630,,
01/03/09,18:00,276.7,13.2,89.6,1372.625,,
01/03/09,18:30,276.9,13.2,89.4,1372.627,,
01/03/09,19:00,277.2,13.3,89.1,1372.630,,
01/03/09,19:30,276.5,13.2,89.8,1372.623,,
01/03/09,20:00,276.4,13.2,89.9,1372.622,,
01/03/09,20:30,276.6,13.2,89.7,1372.624,,
01/03/09,21:00,276.4,13.2,89.9,1372.622,,
01/03/09,21:30,276.2,13.2,90.1,1372.620,,
01/03/09,22:00,276.3,13.2,90.0,1372.621,,
01/03/09,22:30,276.1,13.2,90.2,1372.619,,
01/03/09,23:00,275.7,13.2,90.6,1372.615,,
01/03/09,23:30,275.7,13.2,90.6,1372.615,,
01/04/09,0:00,275.6,13.2,90.7,1372.614,,
01/04/09,0:30,275.2,13.2,91.1,1372.610,,
01/04/09,1:00,276.0,13.2,90.3,1372.618,,
01/04/09,1:30,276.1,13.2,90.2,1372.619,,
01/04/09,2:00,276.5,13.2,89.8,1372.623,,
01/04/09,2:30,276.4,13.2,89.9,1372.622,,
01/04/09,3:00,276.4,13.2,89.9,1372.622,,
01/04/09,3:30,276.4,13.2,89.9,1372.622,,
01/04/09,4:00,276.6,13.2,89.7,1372.624,,
01/04/09,4:30,276.7,13.2,89.6,1372.625,,
01/04/09,5:00,276.8,13.2,89.5,1372.626,,
01/04/09,5:30,276.4,13.2,89.9,1372.622,,
01/04/09,6:00,277.1,13.2,89.2,1372.629,,
01/04/09,6:30,276.8,13.2,89.5,1372.626,,
01/04/09,7:00,276.0,13.2,90.3,1372.618,,
01/04/09,7:30,276.5,13.2,89.8,1372.623,,
01/04/09,8:00,276.0,13.2,90.3,1372.618,,
01/04/09,8:30,276.3,13.2,90.0,1372.621,,
01/04/09,9:00,275.9,13.2,90.4,1372.617,,
01/04/09,9:30,276.5,13.2,89.8,1372.623,,
01/04/09,10:00,275.6,13.2,90.7,1372.614,,
01/04/09,10:30,275.8,13.2,90.5,1372.616,,
01/04/09,11:00,276.1,13.2,90.2,1372.619,,
01/04/09,11:30,275.9,13.2,90.4,1372.617,,
01/04/09,12:00,275.9,13.2,90.4,1372.617,,
01/04/09,12:30,276.0,13.2,90.3,1372.618,,
01/04/09,13:00,276.3,13.2,90.0,1372.621,,
01/04/09,13:30,276.1,13.2,90.2,1372.619,,
01/04/09,14:00,276.7,13.2,89.6,1372.625,,
01/04/09,14:30,276.8,13.2,89.5,1372.626,,
01/04/09,15:00,276.8,13.2,89.5,1372.626,,
01/04/09,15:30,277.5,13.2,88.8,1372.633,,
01/04/09,16:00,277.4,13.2,88.9,1372.632,,
01/04/09,16:30,277.7,13.2,88.6,1372.635,,
01/04/09,17:00,277.0,13.2,89.3,1372.628,,
01/04/09,17:30,276.9,13.2,89.4,1372.627,,
01/04/09,18:00,276.4,13.2,89.9,1372.622,,
01/04/09,18:30,277.1,13.2,89.2,1372.629,,
01/04/09,19:00,276.5,13.2,89.8,1372.623,,
01/04/09,19:30,276.5,13.2,89.8,1372.623,,
01/04/09,20:00,275.9,13.2,90.4,1372.617,,
01/04/09,20:30,275.8,13.2,90.5,1372.616,,
01/04/09,21:00,275.7,13.2,90.6,1372.615,,
01/04/09,21:30,275.5,13.2,90.8,1372.613,,
01/04/09,22:00,276.0,13.2,90.3,1372.618,,
01/04/09,22:30,275.7,13.2,90.6,1372.615,,
01/04/09,23:00,275.8,13.2,90.5,1372.616,,
01/04/09,23:30,275.2,13.2,91.1,1372.610,,
01/05/09,0:00,275.5,13.2,90.8,1372.613,,
01/05/09,0:30,275.7,13.2,90.6,1372.615,,
01/05/09,1:00,275.9,13.2,90.4,1372.617,,
01/05/09,1:30,275.5,13.2,90.8,1372.613,,
01/05/09,2:00,276.0,13.2,90.3,1372.618,,
01/05/09,2:30,276.4,13.2,89.9,1372.622,,
01/05/09,3:00,277.0,13.2,89.3,1372.628,,
01/05/09,3:30,276.7,13.2,89.6,1372.625,,
01/05/09,4:00,276.9,13.2,89.4,1372.627,,
01/05/09,4:30,276.3,13.2,90.0,1372.621,,
01/05/09,5:00,277.2,13.2,89.1,1372.630,,
01/05/09,5:30,276.9,13.2,89.4,1372.627,,
01/05/09,6:00,276.8,13.2,89.5,1372.626,,
01/05/09,6:30,276.7,13.2,89.6,1372.625,,
01/05/09,7:00,276.4,13.2,89.9,1372.622,,
01/05/09,7:30,277.0,13.2,89.3,1372.628,,
01/05/09,8:00,276.8,13.2,89.5,1372.626,,
01/05/09,8:30,276.6,13.2,89.7,1372.624,,
01/05/09,9:00,276.6,13.2,89.7,1372.624,,
01/05/09,9:30,276.8,13.2,89.5,1372.626,,
01/05/09,10:00,276.9,13.2,89.4,1372.627,,
01/05/09,10:30,276.5,13.2,89.8,1372.623,,
01/05/09,11:00,276.7,13.2,89.6,1372.625,,
01/05/09,11:30,276.6,13.2,89.7,1372.624,,
01/05/09,12:00,277.0,13.2,89.3,1372.628,,
01/05/09,12:30,276.9,13.2,89.4,1372.627,,
01/05/09,13:00,277.6,13.2,88.7,1372.634,,
01/05/09,13:30,277.8,13.2,88.5,1372.636,,
01/05/09,14:00,279.0,13.2,87.3,1372.648,,
01/05/09,14:30,278.4,13.2,87.9,1372.642,,
01/05/09,15:00,278.7,13.2,87.6,1372.645,,
01/05/09,15:30,278.9,13.2,87.4,1372.647,,
01/05/09,16:00,278.7,13.2,87.6,1372.645,,
01/05/09,16:30,278.9,13.2,87.4,1372.647,,
01/05/09,17:00,278.3,13.2,88.0,1372.641,,
01/05/09,17:30,278.4,13.2,87.9,1372.642,,
01/05/09,18:00,278.8,13.2,87.5,1372.646,,
01/05/09,18:30,278.1,13.2,88.2,1372.639,,
01/05/09,19:00,277.6,13.2,88.7,1372.634,,
01/05/09,19:30,278.2,13.2,88.1,1372.640,,
01/05/09,20:00,278.0,13.2,88.3,1372.638,,
01/05/09,20:30,277.9,13.2,88.4,1372.637,,
01/05/09,21:00,277.2,13.2,89.1,1372.630,,
01/05/09,21:30,277.4,13.2,88.9,1372.632,,
01/05/09,22:00,277.1,13.2,89.3,1372.629,,
01/05/09,22:30,276.8,13.2,89.5,1372.626,,
01/05/09,23:00,277.3,13.2,89.0,1372.631,,
01/05/09,23:30,277.7,13.2,88.6,1372.635,,
01/06/09,0:00,277.3,13.2,89.0,1372.631,,
01/06/09,0:30,277.3,13.2,89.0,1372.631,,
01/06/09,1:00,276.9,13.2,89.4,1372.627,,
01/06/09,1:30,277.5,13.2,88.8,1372.633,,
01/06/09,2:00,277.3,13.2,89.0,1372.631,,
01/06/09,2:30,277.3,13.2,89.0,1372.631,,
01/06/09,3:00,277.8,13.2,88.5,1372.636,,
01/06/09,3:30,277.5,13.2,88.8,1372.633,,
01/06/09,4:00,277.0,13.2,89.3,1372.628,,
01/06/09,4:30,277.4,13.2,88.9,1372.632,,
01/06/09,5:00,276.4,13.2,89.9,1372.622,,
01/06/09,5:30,276.7,13.2,89.6,1372.625,,
01/06/09,6:00,276.2,13.2,90.1,1372.620,,
01/06/09,6:30,276.5,13.2,89.8,1372.623,,
01/06/09,7:00,275.7,13.2,90.6,1372.615,,
01/06/09,7:30,276.1,13.2,90.2,1372.619,,
01/06/09,8:00,276.0,13.2,90.3,1372.618,,
01/06/09,8:30,275.7,13.1,90.6,1372.615,,
01/06/09,9:00,274.7,13.2,91.6,1372.605,,
01/06/09,9:30,274.7,13.2,91.6,1372.605,,
01/06/09,10:00,274.9,13.2,91.4,1372.607,,
01/06/09,10:30,274.5,13.1,91.8,1372.603,,
01/06/09,11:00,274.7,13.2,91.6,1372.605,,
01/06/09,11:30,274.5,13.2,91.8,1372.603,,
01/06/09,12:00,274.5,13.1,91.8,1372.603,,
01/06/09,12:30,274.5,13.1,91.8,1372.603,,
01/06/09,13:00,274.6,13.2,91.7,1372.604,,
01/06/09,13:30,274.8,13.2,91.5,1372.606,,
01/06/09,14:00,275.1,13.2,91.2,1372.609,,
01/06/09,14:30,275.0,13.2,91.3,1372.608,,
01/06/09,15:00,274.9,13.2,91.4,1372.607,,
01/06/09,15:30,274.7,13.2,91.6,1372.605,,
01/06/09,16:00,275.1,13.1,91.2,1372.609,,
01/06/09,16:30,274.7,13.2,91.6,1372.605,,
01/06/09,17:00,274.8,13.1,91.5,1372.606,,
01/06/09,17:30,274.4,13.2,91.9,1372.602,,
01/06/09,18:00,274.0,13.1,92.3,1372.598,,
01/06/09,18:30,274.0,13.1,92.3,1372.598,,
01/06/09,19:00,274.0,13.2,92.3,1372.598,,
01/06/09,19:30,273.4,13.2,92.9,1372.592,,
01/06/09,20:00,273.3,13.2,93.0,1372.591,,
01/06/09,20:30,272.4,13.2,93.9,1372.582,,
01/06/09,21:00,272.3,13.1,94.0,1372.581,,
01/06/09,21:30,272.2,13.1,94.1,1372.580,,
01/06/09,22:00,271.9,13.1,94.4,1372.577,,
01/06/09,22:30,272.0,13.2,94.3,1372.578,,
01/06/09,23:00,272.2,13.2,94.1,1372.580,,
01/06/09,23:30,272.5,13.1,93.8,1372.583,,
01/07/09,0:00,272.4,13.1,93.9,1372.582,,
01/07/09,0:30,273.2,13.2,93.1,1372.590,,
01/07/09,1:00,272.3,13.2,94.0,1372.581,,
01/07/09,1:30,272.9,13.1,93.4,1372.587,,
01/07/09,2:00,273.2,13.1,93.1,1372.590,,
01/07/09,2:30,272.3,13.1,94.0,1372.581,,
01/07/09,3:00,272.8,13.1,93.5,1372.586,,
01/07/09,3:30,273.0,13.2,93.3,1372.588,,
01/07/09,4:00,272.5,13.2,93.8,1372.583,,
01/07/09,4:30,272.4,13.1,93.9,1372.582,,
01/07/09,5:00,272.4,13.1,93.9,1372.582,,
01/07/09,5:30,272.4,13.1,93.9,1372.582,,
01/07/09,6:00,272.3,13.1,94.0,1372.581,,
01/07/09,6:30,272.4,13.2,93.9,1372.582,,
01/07/09,7:00,272.3,13.1,94.0,1372.581,,
01/07/09,7:30,272.1,13.1,94.2,1372.579,,
01/07/09,8:00,272.4,13.2,93.9,1372.582,,
01/07/09,8:30,272.4,13.1,93.9,1372.582,,
01/07/09,9:00,272.0,13.1,94.3,1372.578,,
01/07/09,9:30,272.6,13.1,93.7,1372.584,,
01/07/09,10:00,271.8,13.1,94.5,1372.576,,
01/07/09,10:30,271.3,13.1,95.0,1372.571,,
01/07/09,11:00,272.2,13.1,94.1,1372.580,,
01/07/09,11:30,271.2,13.1,95.1,1372.570,,
01/07/09,12:00,271.6,13.1,94.7,1372.574,,
01/07/09,12:30,272.5,13.1,93.8,1372.583,,
01/07/09,13:00,272.3,13.1,94.0,1372.581,,
01/07/09,13:30,272.6,13.1,93.7,1372.584,,
01/07/09,14:00,272.3,13.1,94.0,1372.581,,
01/07/09,14:30,272.5,13.1,93.8,1372.583,,
01/07/09,15:00,272.5,13.1,93.8,1372.583,,
01/07/09,15:30,272.2,13.1,94.1,1372.580,,
01/07/09,16:00,271.7,13.1,94.6,1372.575,,
01/07/09,16:30,272.0,13.1,94.3,1372.578,,
01/07/09,17:00,272.2,13.1,94.1,1372.580,,
01/07/09,17:30,272.0,13.1,94.3,1372.578,,
01/07/09,18:00,271.3,13.1,95.0,1372.571,,
01/07/09,18:30,271.1,13.1,95.2,1372.569,,
01/07/09,19:00,271.2,13.1,95.1,1372.570,,
01/07/09,19:30,271.3,13.1,95.0,1372.571,,
01/07/09,20:00,270.4,13.1,95.9,1372.562,,
01/07/09,20:30,270.1,13.1,96.2,1372.559,,
01/07/09,21:00,270.1,13.1,96.2,1372.559,,
01/07/09,21:30,270.0,13.1,96.3,1372.558,,
01/07/09,22:00,270.2,13.1,96.1,1372.560,,
01/07/09,22:30,269.9,13.1,96.4,1372.557,,
01/07/09,23:00,269.7,13.1,96.6,1372.555,,
01/07/09,23:30,270.0,13.1,96.3,1372.558,,
01/08/09,0:00,270.1,13.1,96.2,1372.559,,
01/08/09,0:30,269.3,13.1,97.0,1372.551,,
01/08/09,1:00,269.4,13.1,96.9,1372.552,,
01/08/09,1:30,269.2,13.1,97.1,1372.550,,
01/08/09,2:00,269.9,13.1,96.4,1372.557,,
01/08/09,2:30,269.0,13.1,97.3,1372.548,,
01/08/09,3:00,269.4,13.1,96.9,1372.552,,
01/08/09,3:30,269.5,13.1,96.8,1372.553,,
01/08/09,4:00,269.5,13.1,96.8,1372.553,,
01/08/09,4:30,269.4,13.1,96.9,1372.552,,
01/08/09,5:00,269.8,13.1,96.5,1372.556,,
01/08/09,5:30,269.6,13.1,96.7,1372.554,,
01/08/09,6:00,269.6,13.1,96.7,1372.554,,
01/08/09,6:30,269.3,13.1,97.0,1372.551,,
01/08/09,7:00,269.2,13.1,97.1,1372.550,,
01/08/09,7:30,268.9,13.1,97.4,1372.547,,
01/08/09,8:00,269.3,13.1,97.0,1372.551,,
01/08/09,8:30,269.0,13.1,97.3,1372.548,,
01/08/09,9:00,269.6,13.0,96.7,1372.554,,
01/08/09,9:30,269.1,13.1,97.2,1372.549,,
01/08/09,10:00,269.1,13.1,97.2,1372.549,,
01/08/09,10:30,268.8,13.1,97.5,1372.546,,
01/08/09,11:00,268.5,13.1,97.8,1372.543,,
01/08/09,11:30,268.7,13.0,97.6,1372.545,,
01/08/09,12:00,268.6,13.0,97.7,1372.544,,
01/08/09,12:30,268.8,13.0,97.5,1372.546,,
01/08/09,13:00,269.4,13.1,96.9,1372.552,,
01/08/09,13:30,269.8,13.1,96.5,1372.556,,
01/08/09,14:00,270.0,13.0,96.3,1372.558,,
01/08/09,14:30,269.4,13.0,96.9,1372.552,,
01/08/09,15:00,269.5,13.0,96.8,1372.553,,
01/08/09,15:30,269.7,13.0,96.6,1372.555,,
01/08/09,16:00,269.8,13.0,96.5,1372.556,,
01/08/09,16:30,269.4,13.0,96.9,1372.552,,
01/08/09,17:00,269.8,13.0,96.5,1372.556,,
01/08/09,17:30,269.5,13.0,96.8,1372.553,,
01/08/09,18:00,269.5,13.0,96.8,1372.553,,
01/08/09,18:30,269.9,13.0,96.4,1372.557,,
01/08/09,19:00,269.3,13.0,97.0,1372.551,,
01/08/09,19:30,269.7,13.0,96.6,1372.555,,
01/08/09,20:00,269.2,13.0,97.1,1372.550,,
01/08/09,20:30,269.4,13.0,96.9,1372.552,,
01/08/09,21:00,268.9,13.0,97.4,1372.547,,
01/08/09,21:30,268.0,13.0,98.3,1372.538,,
01/08/09,22:00,268.2,13.0,98.1,1372.540,,
01/08/09,22:30,268.6,13.0,97.7,1372.544,,
01/08/09,23:00,268.9,13.0,97.4,1372.547,,
01/08/09,23:30,268.6,13.0,97.7,1372.544,,
01/09/09,0:00,268.9,13.0,97.4,1372.547,,
01/09/09,0:30,269.1,13.0,97.2,1372.549,,
01/09/09,1:00,268.8,13.0,97.5,1372.546,,
01/09/09,1:30,269.0,13.0,97.3,1372.548,,
01/09/09,2:00,269.1,13.0,97.2,1372.549,,
01/09/09,2:30,269.1,13.0,97.2,1372.549,,
01/09/09,3:00,269.1,13.0,97.2,1372.549,,
01/09/09,3:30,269.2,13.0,97.1,1372.550,,
01/09/09,4:00,269.3,13.0,97.0,1372.551,,
01/09/09,4:30,269.2,13.0,97.1,1372.550,,
01/09/09,5:00,269.4,13.0,96.9,1372.552,,
01/09/09,5:30,269.3,13.0,97.0,1372.551,,
01/09/09,6:00,269.1,13.0,97.2,1372.549,,
01/09/09,6:30,269.0,13.0,97.3,1372.548,,
01/09/09,7:00,269.0,13.0,97.3,1372.548,,
01/09/09,7:30,268.4,13.0,97.9,1372.542,,
01/09/09,8:00,268.9,13.0,97.4,1372.547,,
01/09/09,8:30,268.4,13.0,97.9,1372.542,,
01/09/09,9:00,268.5,13.0,97.8,1372.543,,
01/09/09,9:30,268.6,13.0,97.7,1372.544,,
01/09/09,10:00,268.6,13.0,97.7,1372.544,,
01/09/09,10:30,268.3,13.0,98.0,1372.541,,
01/09/09,11:00,268.3,13.0,98.0,1372.541,,
01/09/09,11:30,268.4,13.0,97.9,1372.542,,
01/09/09,12:00,269.2,13.0,97.1,1372.550,,
01/09/09,12:30,269.0,13.0,97.3,1372.548,,
01/09/09,13:00,269.4,13.0,96.9,1372.552,,
01/09/09,13:30,270.0,13.0,96.3,1372.558,,
01/09/09,14:00,269.5,13.0,96.8,1372.553,,
01/09/09,14:30,269.8,13.0,96.5,1372.556,,
01/09/09,15:00,269.8,13.0,96.5,1372.556,,
01/09/09,15:30,271.5,13.0,94.8,1372.573,,
01/09/09,16:00,270.9,13.0,95.4,1372.567,,
01/09/09,16:30,270.9,13.0,95.4,1372.567,,
01/09/09,17:00,270.5,13.0,95.8,1372.563,,
01/09/09,17:30,270.6,13.0,95.7,1372.564,,
01/09/09,18:00,270.5,13.0,95.8,1372.563,,
01/09/09,18:30,269.8,13.0,96.5,1372.556,,
01/09/09,19:00,269.3,13.0,97.0,1372.551,,
01/09/09,19:30,269.4,13.0,96.9,1372.552,,
01/09/09,20:00,268.9,13.0,97.4,1372.547,,
01/09/09,20:30,268.6,13.0,97.7,1372.544,,
01/09/09,21:00,268.9,13.0,97.4,1372.547,,
01/09/09,21:30,269.0,13.0,97.3,1372.548,,
01/09/09,22:00,268.8,13.0,97.5,1372.546,,
01/09/09,22:30,268.8,13.0,97.5,1372.546,,
01/09/09,23:00,269.1,13.0,97.2,1372.549,,
01/09/09,23:30,268.7,13.0,97.6,1372.545,,
01/10/09,0:00,268.7,13.0,97.6,1372.545,,
01/10/09,0:30,268.6,13.0,97.7,1372.544,,
01/10/09,1:00,269.8,13.0,96.5,1372.556,,
01/10/09,1:30,270.0,13.0,96.3,1372.558,,
01/10/09,2:00,269.8,13.0,96.5,1372.556,,
01/10/09,2:30,269.9,13.0,96.4,1372.557,,
01/10/09,3:00,270.0,12.9,96.3,1372.558,,
01/10/09,3:30,269.2,13.0,97.1,1372.550,,
01/10/09,4:00,270.2,13.0,96.1,1372.560,,
01/10/09,4:30,269.4,13.0,96.9,1372.552,,
01/10/09,5:00,269.5,13.0,96.8,1372.553,,
01/10/09,5:30,269.8,13.0,96.5,1372.556,,
01/10/09,6:00,269.6,13.0,96.7,1372.554,,
01/10/09,6:30,269.3,13.0,97.0,1372.551,,
01/10/09,7:00,269.9,12.9,96.4,1372.557,,
01/10/09,7:30,269.8,12.9,96.5,1372.556,,
01/10/09,8:00,270.0,12.9,96.3,1372.558,,
01/10/09,8:30,270.1,13.0,96.2,1372.559,,
01/10/09,9:00,269.7,13.0,96.6,1372.555,,
01/10/09,9:30,269.8,12.9,96.5,1372.556,,
01/10/09,10:00,270.4,12.9,95.9,1372.562,,
01/10/09,10:30,270.2,12.9,96.1,1372.560,,
01/10/09,11:00,270.7,12.9,95.6,1372.565,,
01/10/09,11:30,270.7,12.9,95.6,1372.565,,
01/10/09,12:00,271.1,12.9,95.2,1372.569,,
01/10/09,12:30,272.3,12.9,94.0,1372.581,,
01/10/09,13:00,272.2,12.9,94.1,1372.580,,
01/10/09,13:30,272.7,12.9,93.6,1372.585,,
01/10/09,14:00,272.5,12.9,93.8,1372.583,,
01/10/09,14:30,272.7,12.9,93.6,1372.585,,
01/10/09,15:00,272.5,12.9,93.8,1372.583,,
01/10/09,15:30,273.1,12.9,93.2,1372.589,,
01/10/09,16:00,272.5,12.9,93.8,1372.583,,
01/10/09,16:30,272.7,12.9,93.6,1372.585,,
01/10/09,17:00,272.6,12.9,93.7,1372.584,,
01/10/09,17:30,272.7,12.9,93.6,1372.585,,
01/10/09,18:00,272.6,12.9,93.7,1372.584,,
01/10/09,18:30,271.9,12.9,94.4,1372.577,,
01/10/09,19:00,271.6,12.9,94.7,1372.574,,
01/10/09,19:30,271.7,12.9,94.6,1372.575,,
01/10/09,20:00,271.7,12.9,94.6,1372.575,,
01/10/09,20:30,270.9,12.9,95.4,1372.567,,
01/10/09,21:00,271.0,12.9,95.3,1372.568,,
01/10/09,21:30,271.8,12.9,94.5,1372.576,,
01/10/09,22:00,271.8,12.9,94.5,1372.576,,
01/10/09,22:30,272.2,12.9,94.1,1372.580,,
01/10/09,23:00,272.1,12.9,94.2,1372.579,,
01/10/09,23:30,272.4,12.9,93.9,1372.582,,
01/11/09,0:00,273.2,12.9,93.1,1372.590,,
01/11/09,0:30,272.9,12.9,93.4,1372.587,,
01/11/09,1:00,273.1,12.9,93.2,1372.589,,
01/11/09,1:30,272.4,12.9,93.9,1372.582,,
01/11/09,2:00,273.2,12.9,93.1,1372.590,,
01/11/09,2:30,273.2,12.9,93.1,1372.590,,
01/11/09,3:00,273.3,12.9,93.0,1372.591,,
01/11/09,3:30,273.3,12.9,93.0,1372.591,,
01/11/09,4:00,272.9,12.9,93.4,1372.587,,
01/11/09,4:30,273.1,12.9,93.2,1372.589,,
01/11/09,5:00,272.7,12.9,93.6,1372.585,,
01/11/09,5:30,272.6,12.9,93.7,1372.584,,
01/11/09,6:00,273.2,12.9,93.1,1372.590,,
01/11/09,6:30,273.3,12.9,93.0,1372.591,,
01/11/09,7:00,273.3,12.9,93.0,1372.591,,
01/11/09,7:30,273.1,12.9,93.2,1372.589,,
01/11/09,8:00,273.3,12.9,93.0,1372.591,,
01/11/09,8:30,273.3,12.9,93.0,1372.591,,
01/11/09,9:00,272.6,12.9,93.7,1372.584,,
01/11/09,9:30,273.2,12.8,93.1,1372.590,,
01/11/09,10:00,272.7,12.8,93.6,1372.585,,
01/11/09,10:30,273.3,12.9,93.0,1372.591,,
01/11/09,11:00,274.8,12.9,91.5,1372.606,,
01/11/09,11:30,274.3,12.9,92.0,1372.601,,
01/11/09,12:00,274.9,12.9,91.4,1372.607,,
01/11/09,12:30,275.4,12.8,90.9,1372.612,,
01/11/09,13:00,276.0,12.9,90.3,1372.618,,
01/11/09,13:30,276.2,12.9,90.1,1372.620,,
01/11/09,14:00,275.6,12.9,90.7,1372.614,,
01/11/09,14:30,275.9,12.9,90.4,1372.617,,
01/11/09,15:00,276.0,12.9,90.3,1372.618,,
01/11/09,15:30,276.1,12.9,90.2,1372.619,,
01/11/09,16:00,276.4,12.9,89.9,1372.622,,
01/11/09,16:30,276.1,12.9,90.2,1372.619,,
01/11/09,17:00,276.3,12.9,90.0,1372.621,,
01/11/09,17:30,275.4,12.9,90.9,1372.612,,
01/11/09,18:00,275.1,12.9,91.2,1372.609,,
01/11/09,18:30,274.8,12.8,91.5,1372.606,,
01/11/09,19:00,274.5,12.8,91.8,1372.603,,
01/11/09,19:30,274.7,12.9,91.6,1372.605,,
01/11/09,20:00,274.0,12.9,92.3,1372.598,,
01/11/09,20:30,274.8,12.9,91.5,1372.606,,
01/11/09,21:00,274.4,12.9,91.9,1372.602,,
01/11/09,21:30,274.0,12.9,92.3,1372.598,,
01/11/09,22:00,274.5,12.9,91.8,1372.603,,
01/11/09,22:30,274.3,12.9,92.0,1372.601,,
01/11/09,23:00,274.7,12.9,91.6,1372.605,,
01/11/09,23:30,274.1,12.9,92.2,1372.599,,
01/12/09,0:00,274.8,12.8,91.5,1372.606,,
01/12/09,0:30,275.1,12.9,91.2,1372.609,,
01/12/09,1:00,275.5,12.8,90.8,1372.613,,
01/12/09,1:30,275.3,12.9,91.0,1372.611,,
01/12/09,2:00,274.8,12.9,91.5,1372.606,,
01/12/09,2:30,275.0,12.8,91.3,1372.608,,
01/12/09,3:00,275.1,12.9,91.2,1372.609,,
01/12/09,3:30,274.7,12.8,91.6,1372.605,,
01/12/09,4:00,275.2,12.8,91.1,1372.610,,
01/12/09,4:30,274.8,12.8,91.5,1372.606,,
01/12/09,5:00,275.4,12.8,90.9,1372.612,,
01/12/09,5:30,275.2,12.8,91.1,1372.610,,
01/12/09,6:00,275.1,12.8,91.2,1372.609,,
01/12/09,6:30,275.5,12.8,90.8,1372.613,,
01/12/09,7:00,275.4,12.9,90.9,1372.612,,
01/12/09,7:30,275.7,12.9,90.6,1372.615,,
01/12/09,8:00,275.6,12.8,90.7,1372.614,,
01/12/09,8:30,275.6,12.8,90.7,1372.614,,
01/12/09,9:00,274.8,12.8,91.5,1372.606,,
01/12/09,9:30,274.5,12.8,91.8,1372.603,,
01/12/09,10:00,274.9,12.8,91.4,1372.607,,
01/12/09,10:30,275.2,12.8,91.1,1372.610,,